This demonstration page uses our WeatherBlox Daily Observations layout. Learn more.

Left ArrowRight Arrow

41.55636, -103.73856

Hourly Observations for December 9, 2020

Temp ( °F °C ) Dew Point ( °F °C ) Humidity (%) Winds ( mph kmh ) Pressure ( in mb ) Visibility ( mi km ) Precip ( " mm )
12:58 am 00:58 Clear 41 5 2 -16.4 20 20 SW 8 13 30.15 1021 10 16 0.00 0.00
1:58 am 01:58 Clear 41 5.1 3 -16.2 20 20 SW 8 13 30.16 1022 10 16 0.00 0.00
2:58 am 02:58 Clear 40 4.7 4 -15.6 22 22 W 7 11 30.15 1021 10 16 0.00 0.00
3:58 am 03:58 Clear 41 5.1 3 -16 20 20 WNW 7 11 30.15 1021 10 16 0.00 0.00
4:58 am 04:58 Clear 41 4.9 3 -16.1 20 20 WSW 8 13 30.16 1022 10 16 0.00 0.00
5:58 am 05:58 Clear 41 4.8 3 -16.1 21 21 SW 8 13 30.18 1022 10 16 0.00 0.00
6:58 am 06:58 Clear 42 5.5 3 -16.1 20 20 WSW 6 9 30.15 1021 10 16 0.00 0.00
7:58 am 07:58 Sunny 36 2.4 4 -15.6 25 25 NW 7 11 30.18 1022 10 16 0.00 0.00
8:58 am 08:58 Sunny 41 5.2 5 -14.8 22 22 WNW 3 6 30.16 1021 10 16 0.00 0.00
9:58 am 09:58 Sunny 53 11.5 10 -12.3 18 18 Calm 30.11 1020 10 16 0.00 0.00
10:58 am 10:58 Sunny 64 18 6 -14.6 10 10 SW 15 24 30.03 1017 10 16 0.00 0.00
11:58 am 11:58 Sunny 65 18.2 2 -16.9 8 8 SW 21 33 29.98 1015 10 16 0.00 0.00
12:58 pm 12:58 Sunny 65 18.4 7 -13.8 10 10 SSW 23 37 29.94 1014 10 16 0.00 0.00
1:58 pm 13:58 Sunny 65 18.4 8 -13.4 10 10 SSW 24 39 29.92 1013 10 16 0.00 0.00
2:58 pm 14:58 Sunny 64 17.8 7 -14.1 10 10 SW 22 35 29.92 1013 10 16 0.00 0.00
3:58 pm 15:58 Sunny 58 14.7 2 -16.9 10 10 SW 17 28 29.92 1013 10 16 0.00 0.00
4:58 pm 16:58 Mostly Clear 47 8.5 -1 -18.3 13 13 SSW 14 22 29.95 1014 10 16 0.00 0.00
5:58 pm 17:58 Mostly Clear 44 6.6 -1 -18.5 15 15 WSW 8 13 29.96 1015 10 16 0.00 0.00
6:58 pm 18:58 Clear 45 7.3 -6 -20.9 11 11 W 14 22 29.96 1015 10 16 0.00 0.00
7:58 pm 19:58 Clear 40 4.5 -7 -21.8 13 13 SW 10 17 29.97 1015 10 16 0.00 0.00
8:58 pm 20:58 Clear 35 1.5 -9 -22.6 15 15 SSW 8 13 29.97 1015 10 16 0.00 0.00
9:58 pm 21:58 Mostly Cloudy 41 4.8 -5 -20.6 14 14 WSW 3 6 29.92 1013 10 16 0.00 0.00
10:58 pm 22:58 Mostly Cloudy 39 3.9 -5 -20.4 15 15 W 5 7 29.90 1012 10 16 0.00 0.00
11:58 pm 23:58 Mostly Clear 40 4.7 -5 -20.3 14 14 W 9 15 29.90 1013 10 16 0.00 0.00

Powered by AerisWeather